Time,TemperatureF,DewpointF,PressureIn,WindDirection,WindDirectionDegrees,WindSpeedMPH,WindSpeedGustMPH,Humidity,HourlyPrecipIn,Conditions,Clouds,dailyrainin,SoftwareType,DateUTC
2013-01-01 00:03:00,22.1,19.0,30.16,NNE,32,1.0,2.0,87,0.00,,,0.00,weatherlink.com 1.10,2013-01-01 06:03:00,
2013-01-01 00:18:00,22.0,19.0,30.16,ENE,66,0.0,2.0,87,0.00,,,0.00,weatherlink.com 1.10,2013-01-01 06:18:00,
2013-01-01 00:33:00,22.0,19.0,30.16,NW,316,0.0,5.0,87,0.00,,,0.00,weatherlink.com 1.10,2013-01-01 06:33:00,
2013-01-01 00:48:00,21.9,19.0,30.16,NE,40,2.0,3.0,88,0.00,,,0.00,weatherlink.com 1.10,2013-01-01 06:48:00,
2013-01-01 01:03:00,21.8,19.0,30.15,NE,36,0.0,2.0,88,0.00,,,0.00,weatherlink.com 1.10,2013-01-01 07:03:00,
2013-01-01 01:18:00,21.6,19.0,30.16,NNE,25,0.0,2.0,88,0.00,,,0.00,weatherlink.com 1.10,2013-01-01 07:18:00,
2013-01-01 01:33:00,21.5,18.0,30.18,NE,40,0.0,2.0,87,0.00,,,0.00,weatherlink.com 1.10,2013-01-01 07:33:00,
2013-01-01 01:48:00,21.3,18.0,30.18,NNW,348,0.0,3.0,87,0.00,,,0.00,weatherlink.com 1.10,2013-01-01 07:48:00,
2013-01-01 02:03:00,21.3,18.0,30.18,NE,51,2.0,3.0,87,0.00,,,0.00,weatherlink.com 1.10,2013-01-01 08:03:00,
2013-01-01 02:18:00,21.0,18.0,30.19,NNE,32,0.0,3.0,87,0.00,,,0.00,weatherlink.com 1.10,2013-01-01 08:18:00,
2013-01-01 02:33:00,20.9,18.0,30.19,ESE,112,0.0,2.0,88,0.00,,,0.00,weatherlink.com 1.10,2013-01-01 08:33:00,
2013-01-01 02:48:00,20.7,17.0,30.19,NNE,25,0.0,1.0,87,0.00,,,0.00,weatherlink.com 1.10,2013-01-01 08:48:00,
2013-01-01 03:03:00,20.4,17.0,30.19,WNW,293,2.0,4.0,87,0.00,,,0.00,weatherlink.com 1.10,2013-01-01 09:03:00,
2013-01-01 03:18:00,19.8,16.0,30.20,WNW,290,0.0,6.0,86,0.00,,,0.00,weatherlink.com 1.10,2013-01-01 09:18:00,
2013-01-01 03:33:00,19.4,16.0,30.19,NE,42,1.0,5.0,86,0.00,,,0.00,weatherlink.com 1.10,2013-01-01 09:33:00,
2013-01-01 03:48:00,19.0,16.0,30.19,NNE,15,2.0,2.0,86,0.00,,,0.00,weatherlink.com 1.10,2013-01-01 09:48:00,
2013-01-01 04:03:00,18.7,15.0,30.18,ENE,63,0.0,9.0,85,0.00,,,0.00,weatherlink.com 1.10,2013-01-01 10:03:00,
2013-01-01 04:18:00,18.0,14.0,30.18,North,356,0.0,4.0,84,0.00,,,0.00,weatherlink.com 1.10,2013-01-01 10:18:00,
2013-01-01 04:33:00,17.3,13.0,30.19,NNE,32,1.0,3.0,83,0.00,,,0.00,weatherlink.com 1.10,2013-01-01 10:33:00,
2013-01-01 04:48:00,16.8,13.0,30.18,ENE,60,0.0,5.0,83,0.00,,,0.00,weatherlink.com 1.10,2013-01-01 10:48:00,
2013-01-01 05:04:00,16.4,12.0,30.19,NE,53,0.0,5.0,83,0.00,,,0.00,weatherlink.com 1.10,2013-01-01 11:04:00,
2013-01-01 05:19:00,16.0,12.0,30.19,NNE,22,1.0,6.0,83,0.00,,,0.00,weatherlink.com 1.10,2013-01-01 11:19:00,
2013-01-01 05:34:00,15.6,11.0,30.20,NNW,333,0.0,3.0,83,0.00,,,0.00,weatherlink.com 1.10,2013-01-01 11:34:00,
2013-01-01 05:49:00,15.3,11.0,30.21,ENE,60,0.0,3.0,83,0.00,,,0.00,weatherlink.com 1.10,2013-01-01 11:49:00,
2013-01-01 06:04:00,15.0,10.0,30.21,East,83,0.0,4.0,82,0.00,,,0.00,weatherlink.com 1.10,2013-01-01 12:04:00,
2013-01-01 06:19:00,14.8,10.0,30.22,NNE,19,0.0,2.0,82,0.00,,,0.00,weatherlink.com 1.10,2013-01-01 12:19:00,
2013-01-01 06:34:00,14.5,10.0,30.22,North,356,0.0,2.0,82,0.00,,,0.00,weatherlink.com 1.10,2013-01-01 12:34:00,
2013-01-01 06:49:00,14.3,10.0,30.23,NNE,15,0.0,1.0,83,0.00,,,0.00,weatherlink.com 1.10,2013-01-01 12:49:00,
2013-01-01 07:04:00,14.2,10.0,30.24,NNE,18,0.0,2.0,82,0.00,,,0.00,weatherlink.com 1.10,2013-01-01 13:04:00,
2013-01-01 07:19:00,13.7,10.0,30.24,NNE,16,0.0,1.0,83,0.00,,,0.00,weatherlink.com 1.10,2013-01-01 13:19:00,
2013-01-01 07:34:00,13.5,9.0,30.26,North,351,0.0,1.0,83,0.00,,,0.00,weatherlink.com 1.10,2013-01-01 13:34:00,
2013-01-01 07:49:00,13.2,9.0,30.27,North,8,0.0,0.0,84,0.00,,,0.00,weatherlink.com 1.10,2013-01-01 13:49:00,
2013-01-01 08:04:00,13.3,9.0,30.28,North,8,0.0,1.0,84,0.00,,,0.00,weatherlink.com 1.10,2013-01-01 14:04:00,
2013-01-01 08:19:00,13.6,9.0,30.28,North,11,0.0,2.0,83,0.00,,,0.00,weatherlink.com 1.10,2013-01-01 14:19:00,
2013-01-01 08:34:00,14.0,10.0,30.28,NE,44,1.0,1.0,83,0.00,,,0.00,weatherlink.com 1.10,2013-01-01 14:34:00,
2013-01-01 08:50:00,14.4,10.0,30.29,NE,50,0.0,2.0,82,0.00,,,0.00,weatherlink.com 1.10,2013-01-01 14:50:00,
2013-01-01 09:04:00,14.8,10.0,30.29,NE,54,0.0,1.0,80,0.00,,,0.00,weatherlink.com 1.10,2013-01-01 15:04:00,
2013-01-01 09:19:00,15.0,10.0,30.29,WNW,296,0.0,1.0,79,0.00,,,0.00,weatherlink.com 1.10,2013-01-01 15:19:00,
2013-01-01 09:34:00,15.5,10.0,30.29,NE,49,0.0,3.0,79,0.00,,,0.00,weatherlink.com 1.10,2013-01-01 15:34:00,
2013-01-01 09:49:00,16.1,10.0,30.29,ENE,77,1.0,3.0,76,0.00,,,0.00,weatherlink.com 1.10,2013-01-01 15:49:00,
2013-01-01 10:04:00,16.8,10.0,30.30,NW,311,0.0,5.0,76,0.00,,,0.00,weatherlink.com 1.10,2013-01-01 16:04:00,
2013-01-01 10:19:00,18.0,11.0,30.30,WNW,288,0.0,3.0,73,0.00,,,0.00,weatherlink.com 1.10,2013-01-01 16:19:00,
2013-01-01 10:34:00,19.3,12.0,30.31,ENE,77,0.0,4.0,72,0.00,,,0.00,weatherlink.com 1.10,2013-01-01 16:34:00,
2013-01-01 10:49:00,20.5,12.0,30.30,WNW,292,0.0,3.0,71,0.00,,,0.00,weatherlink.com 1.10,2013-01-01 16:49:00,
2013-01-01 11:04:00,20.7,12.0,30.31,NW,326,0.0,4.0,69,0.00,,,0.00,weatherlink.com 1.10,2013-01-01 17:04:00,
2013-01-01 11:19:00,21.1,12.0,30.30,North,9,0.0,4.0,68,0.00,,,0.00,weatherlink.com 1.10,2013-01-01 17:19:00,
2013-01-01 11:34:00,21.1,13.0,30.29,NNW,329,0.0,2.0,70,0.00,,,0.00,weatherlink.com 1.10,2013-01-01 17:34:00,
2013-01-01 11:49:00,20.8,12.0,30.29,ENE,65,1.0,3.0,69,0.00,,,0.00,weatherlink.com 1.10,2013-01-01 17:49:00,
2013-01-01 12:04:00,20.9,12.0,30.28,WNW,293,2.0,4.0,69,0.00,,,0.00,weatherlink.com 1.10,2013-01-01 18:04:00,
2013-01-01 12:19:00,21.0,11.0,30.28,WNW,295,3.0,4.0,66,0.00,,,0.00,weatherlink.com 1.10,2013-01-01 18:19:00,
2013-01-01 12:34:00,21.6,12.0,30.27,NNE,27,0.0,5.0,66,0.00,,,0.00,weatherlink.com 1.10,2013-01-01 18:34:00,
2013-01-01 12:49:00,22.5,12.0,30.28,North,359,0.0,3.0,64,0.00,,,0.00,weatherlink.com 1.10,2013-01-01 18:49:00,
2013-01-01 13:04:00,23.0,12.0,30.28,WNW,297,2.0,4.0,62,0.00,,,0.00,weatherlink.com 1.10,2013-01-01 19:04:00,
2013-01-01 13:19:00,22.9,11.0,30.27,NW,323,0.0,5.0,61,0.00,,,0.00,weatherlink.com 1.10,2013-01-01 19:19:00,
2013-01-01 13:34:00,23.8,13.0,30.27,NW,310,2.0,4.0,64,0.00,,,0.00,weatherlink.com 1.10,2013-01-01 19:34:00,
2013-01-01 13:49:00,23.7,13.0,30.27,NW,307,1.0,5.0,65,0.00,,,0.00,weatherlink.com 1.10,2013-01-01 19:49:00,
2013-01-01 14:05:00,23.5,13.0,30.27,WNW,298,0.0,3.0,65,0.00,,,0.00,weatherlink.com 1.10,2013-01-01 20:05:00,
2013-01-01 14:20:00,23.6,13.0,30.27,NNW,333,1.0,4.0,63,0.00,,,0.00,weatherlink.com 1.10,2013-01-01 20:20:00,
2013-01-01 14:35:00,23.2,13.0,30.27,WNW,290,3.0,3.0,64,0.00,,,0.00,weatherlink.com 1.10,2013-01-01 20:35:00,
2013-01-01 14:50:00,22.8,13.0,30.28,WNW,300,2.0,4.0,66,0.00,,,0.00,weatherlink.com 1.10,2013-01-01 20:50:00,
2013-01-01 15:05:00,22.8,13.0,30.28,WNW,295,0.0,3.0,65,0.00,,,0.00,weatherlink.com 1.10,2013-01-01 21:05:00,
2013-01-01 15:20:00,22.6,11.0,30.27,NNE,20,0.0,3.0,62,0.00,,,0.00,weatherlink.com 1.10,2013-01-01 21:20:00,
2013-01-01 15:35:00,22.5,11.0,30.27,WNW,298,0.0,3.0,61,0.00,,,0.00,weatherlink.com 1.10,2013-01-01 21:35:00,
2013-01-01 15:50:00,22.3,10.0,30.27,WNW,302,0.0,4.0,59,0.00,,,0.00,weatherlink.com 1.10,2013-01-01 21:50:00,
2013-01-01 16:05:00,22.3,10.0,30.27,WNW,301,1.0,3.0,60,0.00,,,0.00,weatherlink.com 1.10,2013-01-01 22:05:00,
2013-01-01 16:20:00,22.2,11.0,30.27,WNW,285,0.0,2.0,61,0.00,,,0.00,weatherlink.com 1.10,2013-01-01 22:20:00,
2013-01-01 16:35:00,21.9,10.0,30.27,WNW,298,1.0,1.0,60,0.00,,,0.00,weatherlink.com 1.10,2013-01-01 22:35:00,
2013-01-01 16:50:00,21.6,10.0,30.26,NNW,327,0.0,2.0,61,0.00,,,0.00,weatherlink.com 1.10,2013-01-01 22:50:00,
2013-01-01 17:05:00,21.2,10.0,30.27,NW,314,0.0,1.0,63,0.00,,,0.00,weatherlink.com 1.10,2013-01-01 23:05:00,
2013-01-01 17:20:00,20.6,10.0,30.27,NW,314,0.0,0.0,64,0.00,,,0.00,weatherlink.com 1.10,2013-01-01 23:20:00,
2013-01-01 17:35:00,20.0,10.0,30.27,NW,314,0.0,0.0,65,0.00,,,0.00,weatherlink.com 1.10,2013-01-01 23:35:00,
2013-01-01 17:50:00,19.8,10.0,30.27,NW,314,0.0,0.0,67,0.00,,,0.00,weatherlink.com 1.10,2013-01-01 23:50:00,
2013-01-01 18:05:00,19.5,11.0,30.26,NW,314,0.0,0.0,68,0.00,,,0.00,weatherlink.com 1.10,2013-01-02 00:05:00,
2013-01-01 18:20:00,19.0,11.0,30.26,NW,314,0.0,0.0,70,0.00,,,0.00,weatherlink.com 1.10,2013-01-02 00:20:00,
2013-01-01 18:35:00,18.0,11.0,30.25,NW,313,0.0,0.0,73,0.00,,,0.00,weatherlink.com 1.10,2013-01-02 00:35:00,
2013-01-01 18:50:00,17.5,10.0,30.26,NW,314,0.0,0.0,73,0.00,,,0.00,weatherlink.com 1.10,2013-01-02 00:50:00,
2013-01-01 19:05:00,17.5,11.0,30.27,NW,314,0.0,0.0,75,0.00,,,0.00,weatherlink.com 1.10,2013-01-02 01:05:00,
2013-01-01 19:20:00,17.6,11.0,30.27,NW,314,0.0,0.0,75,0.00,,,0.00,weatherlink.com 1.10,2013-01-02 01:20:00,
2013-01-01 19:35:00,17.1,10.0,30.27,NW,314,0.0,0.0,74,0.00,,,0.00,weatherlink.com 1.10,2013-01-02 01:35:00,
2013-01-01 19:50:00,16.3,10.0,30.27,NW,314,0.0,0.0,75,0.00,,,0.00,weatherlink.com 1.10,2013-01-02 01:50:00,
2013-01-01 20:05:00,16.3,10.0,30.28,NW,314,0.0,0.0,75,0.00,,,0.00,weatherlink.com 1.10,2013-01-02 02:05:00,
2013-01-01 20:20:00,16.3,9.0,30.28,NW,313,0.0,0.0,74,0.00,,,0.00,weatherlink.com 1.10,2013-01-02 02:20:00,
2013-01-01 20:35:00,15.8,10.0,30.28,NW,313,0.0,0.0,76,0.00,,,0.00,weatherlink.com 1.10,2013-01-02 02:35:00,
2013-01-01 20:50:00,15.8,10.0,30.27,NW,309,0.0,1.0,77,0.00,,,0.00,weatherlink.com 1.10,2013-01-02 02:50:00,
2013-01-01 21:05:00,15.5,10.0,30.27,NW,309,0.0,0.0,78,0.00,,,0.00,weatherlink.com 1.10,2013-01-02 03:05:00,
2013-01-01 21:20:00,15.3,10.0,30.27,NW,309,0.0,0.0,79,0.00,,,0.00,weatherlink.com 1.10,2013-01-02 03:20:00,
2013-01-01 21:35:00,15.0,10.0,30.27,NW,309,0.0,0.0,79,0.00,,,0.00,weatherlink.com 1.10,2013-01-02 03:35:00,
2013-01-01 21:50:00,14.9,10.0,30.27,NW,309,0.0,0.0,81,0.00,,,0.00,weatherlink.com 1.10,2013-01-02 03:50:00,
2013-01-01 22:05:00,15.1,10.0,30.27,NW,309,0.0,0.0,81,0.00,,,0.00,weatherlink.com 1.10,2013-01-02 04:05:00,
2013-01-01 22:20:00,14.5,10.0,30.26,NW,309,0.0,0.0,81,0.00,,,0.00,weatherlink.com 1.10,2013-01-02 04:20:00,
2013-01-01 22:35:00,14.1,10.0,30.26,NW,309,0.0,0.0,83,0.00,,,0.00,weatherlink.com 1.10,2013-01-02 04:35:00,
2013-01-01 22:50:00,14.3,10.0,30.25,NW,309,0.0,0.0,82,0.00,,,0.00,weatherlink.com 1.10,2013-01-02 04:50:00,
2013-01-01 23:05:00,14.0,10.0,30.26,NW,309,0.0,0.0,83,0.00,,,0.00,weatherlink.com 1.10,2013-01-02 05:05:00,
2013-01-01 23:20:00,14.2,10.0,30.27,NW,309,0.0,0.0,83,0.00,,,0.00,weatherlink.com 1.10,2013-01-02 05:20:00,
2013-01-01 23:35:00,14.3,10.0,30.26,South,187,0.0,1.0,82,0.00,,,0.00,weatherlink.com 1.10,2013-01-02 05:35:00,
2013-01-01 23:50:00,14.2,10.0,30.27,SSE,164,0.0,0.0,83,0.00,,,0.00,weatherlink.com 1.10,2013-01-02 05:50:00,